Regional Weather Roundup
Issued by NWS San Angelo, TX

Home | Current Version | Previous Version | Text Only | Print | Product List | Glossary On
Versions: 1 2 3 4 5 6 7 8 9 10 11 12 13 14 15 16 17 18 19 20 21 22 23 24 25 26 27 28 29 30 31 32 33 34 35 36 37 38 39 40 41 42 43 44 45 46 47 48 49 50
000
ASUS44 KSJT 040810
RWRSJT
WEST CENTRAL TEXAS REGIONAL WEATHER ROUNDUP
NATIONAL WEATHER SERVICE SAN ANGELO TX
300 AM CDT SAT JUL 04 2015

NOTE: "FAIR" INDICATES FEW OR NO CLOUDS BELOW 12,000 FEET WITH NO
SIGNIFICANT WEATHER AND/OR OBSTRUCTIONS TO VISIBILITY.

TXZ049-054-064>066-071>073-076>078-098-099-113-114-127-128-139-140-
154-155-168>170-040900
...LOCATIONS ACROSS WEST CENTRAL TEXAS...

CITY           SKY/WX    TMP DP  RH WIND       PRES   REMARKS
SAN ANGELO     MOCLDY    76  67  73 S6        30.00S
ABILENE        PTCLDY    77  65  66 S12       30.00R
DYESS AFB      PTCLDY    76  65  69 SW8       29.98S
JUNCTION       MOCLDY    75  70  84 CALM      30.01F
SWEETWATER     MOCLDY    75  63  65 S10       30.04S
BROWNWOOD      PTCLDY    73  66  78 CALM      29.99S
COLEMAN        MOSUNNY   74  68  79 S7        30.00S
SONORA         MOCLDY    75  70  83 SE8       30.05F
OZONA          FAIR      75  66  73 S9        30.03F
BRADY          CLEAR     73  70  88 N3        30.01S
$$

TEXAS PANHANDLE/OKLAHOMA PANHANDLE

CITY           SKY/WX    TMP DP  RH WIND       PRES   REMARKS
AMARILLO       MOCLDY    64  58  80 SW9       30.07F
BORGER         MOCLDY    67  63  87 S5        30.05S
CANADIAN         N/A     68  67  94 CALM      30.01F
DALHART        CLEAR     63  60  90 W5        30.09F
DUMAS          MOSUNNY   63  59  86 SW8       30.06F
GUYMON         NOT AVBL
HEREFORD       CLOUDY    65  61  88 MISG      30.09F
PAMPA          PTSUNNY   65  63  92 CALM      30.06S
PERRYTON       PTCLDY    68  64  86 CALM      30.04S
$$

SOUTHERN PANHANDLE/SOUTH PLAINS/ROLLING PLAINS

CITY           SKY/WX    TMP DP  RH WIND       PRES   REMARKS
LUBBOCK        CLOUDY    74  61  63 W3        30.05F
SNYDER         MOCLDY    71  64  76 S5        30.03S
CHILDRESS      CLOUDY    76  64  66 CALM      29.98S
SEMINOLE       MOSUNNY   68  59  73 S5        30.07F
$$

PERMIAN BASIN

CITY           SKY/WX    TMP DP  RH WIND       PRES   REMARKS
MIDLAND        PTCLDY    74  64  71 S6        30.04S
ODESSA         PTCLDY    74  63  68 S6        30.05S
WINK           PTCLDY    75  62  64 SE7       30.01S
$$

FAR WEST/SOUTHWEST MOUNTAINS/TRANS PECOS

CITY           SKY/WX    TMP DP  RH WIND       PRES   REMARKS
ALPINE         CLOUDY    70  62  74 CALM      30.13F
DRYDEN           N/A     77  69  76 E8        29.95F
EL PASO        CLOUDY    80  59  48 CALM      30.02S
FORT STOCKTON  MOCLDY    74  64  71 E9        30.02R
GUADALUPE PASS MOCLDY    68  60  75 NE24      30.15F
MARFA          CLOUDY   N/A N/A N/A NW3       30.12F
PECOS          CLOUDY    78  63  60 E9        30.00S
$$

DALLAS/FORT WORTH METROPLEX

CITY           SKY/WX    TMP DP  RH WIND       PRES   REMARKS
DFW AIRPORT    PTCLDY    82  71  69 SW14      29.93S
FTW MEACHAM    CLEAR     80  71  74 S9        29.94R
DAL-EXECUTIVE  PTCLDY    80  71  74 VRB6      29.94S
GRAND PRAIRIE  CLEAR     80  73  79 S8G16     29.96R
ADDISON        PTCLDY    82  74  76 SW8       29.96S
MESQUITE       MOSUNNY   79  73  81 S9        29.94S
LANCASTER      MOSUNNY   78  71  77 SW8       29.95S
$$

NORTH CENTRAL TEXAS

CITY           SKY/WX    TMP DP  RH WIND       PRES   REMARKS
SHRMAN/DENISON SUNNY     77  72  84 SW6       29.95R
GAINESVILLE    PTCLDY    74  69  84 S3        29.96S
BRIDGEPORT     SUNNY     78  69  74 SW8       29.95S
DENTON         CLEAR     76  70  82 S5        29.93S
WAXAHACHIE     MOSUNNY   78  73  83 S9        29.97R
GRANBURY         N/A     80  70  71 S8        29.96S
$$

WESTERN NORTH TEXAS

CITY           SKY/WX    TMP DP  RH WIND       PRES   REMARKS
WICHITA FALLS  MOCLDY    76  70  82 CALM      29.93S
VERNON         PTSUNNY   74  63  69 CALM      29.96S
BRECKENRIDGE   MOSUNNY   78  65  64 SW8       29.96S
COMANCHE       PTCLDY    76  69  79 S9        29.99R
$$

CENTRAL AND SOUTH CENTRAL TEXAS

CITY           SKY/WX    TMP DP  RH WIND       PRES   REMARKS
AUSTIN/BERGSTM CLOUDY    75  75 100 S6        29.97F
WACO           CLEAR     77  72  84 S9        29.96S
HILLSBORO      SUNNY     77  71  82 S10       29.96F
TEMPLE         CLEAR     75  70  83 S8        29.98R
KILLEEN-GRAY   CLEAR     74  70  88 S6        29.99R
FORT HOOD      CLEAR     75  71  85 S7        29.98R
GEORGETOWN     CLOUDY    79  72  78 SW10      29.98S
LAGO VISTA     PTSUNNY   76  72  87 S6        30.01S
SAN MARCOS     CLOUDY    75  72  88 S6        29.98S
NEW BRAUNFELS  CLOUDY    75  74  96 CALM      29.97F
RANDOLPH AFB   MOCLDY    75  75 100 S7        29.98S
SAN ANTONIO    MOCLDY    77  73  87 S7        29.98F
STINSON        CLOUDY    76  74  93 S5        29.96S
PLEASANTON     NOT AVBL
LA GRANGE      PTCLDY    77  76  97 CALM      29.96S FOG
GIDDINGS       MOSUNNY   76  74  93 CALM      30.01F FOG
$$

EAST TEXAS

CITY           SKY/WX    TMP DP  RH WIND       PRES   REMARKS
PARIS          MOCLDY    75  70  83 SW8       29.93S
CLARKSVILLE    NOT AVBL
TYLER          PTCLDY    80  73  79 S13       29.95S
LONGVIEW       PTCLDY    80  73  79 SW12      29.94S
PALESTINE      PTSUNNY   77  74  88 S5        29.98S
NACOGDOCHES    PTCLDY   N/A N/A N/A SW7       29.97F
$$

TEXAS HILL COUNTRY AND EDWARDS PLATEAU

CITY           SKY/WX    TMP DP  RH WIND       PRES   REMARKS
LLANO          MOSUNNY   75  70  83 CALM      30.02S
HORSESHOE BAY  FAIR      76  72  87 CALM      29.99S
KERRVILLE      MOCLDY    74  72  92 S9G16     30.02F
FREDERICKSBRG  CLEAR     70  67  92 CALM      30.02S
ROCKSPRINGS    CLOUDY    73  70  88 SE15      30.05S
HONDO          MOCLDY    74  73  97 SE6       29.99F
UVALDE         MOSUNNY   73  72  94 E7        29.97F
DEL RIO        CLEAR     78  72  81 E12       29.93S
$$

SOUTHEAST TEXAS

CITY           SKY/WX    TMP DP  RH WIND       PRES   REMARKS
COLLEGE STN    CLOUDY    77  75  93 S5        29.98S
CALDWELL       MOSUNNY   75  75 100 CALM      30.01R
CROCKETT       PTSUNNY   77  77 100 S3        30.00F
BRENHAM        MOCLDY    78  77  97 CALM      29.98F
HUNTSVILLE     PTCLDY    77  74  90 S7        29.98S
CONROE         CLEAR     74  72  93 CALM      29.99S
HOUSTON BUSH   PTCLDY    79  76  90 S5        29.98F
HOUSTON HOBBY  MOCLDY    78  75  90 S5        29.98S
PERLAND        PTCLDY    80  75  84 CALM      30.00S
WHARTON        MOSUNNY   76  75  96 CALM      29.98S
$$

THE UPPER TEXAS COAST

CITY           SKY/WX    TMP DP  RH WIND       PRES   REMARKS
ORANGE         SUNNY     80  73  76 S6        30.00S
PORT ARTHUR    CLEAR     78  75  90 SW3       29.99S
GALVESTON      PTCLDY    83  77  82 S13       30.00S
ANGLETON       CLEAR     79  76  90 CALM      29.98F
BAY CITY       MOSUNNY   78  78  98 CALM      29.97F
$$

TEXAS COASTAL BEND, RIO GRANDE PLAINS DEEP SOUTH TEXAS

CITY           SKY/WX    TMP DP  RH WIND       PRES   REMARKS
VICTORIA       PTCLDY    77  77 100 S5        29.98S
BEEVILLE       CLOUDY   N/A N/A N/A SE6       29.96F
ROCKPORT       PTCLDY    82  76  81 S7        29.96F
PORT ARANSAS   MOSUNNY   80  78  93 S7        29.95F
PORT LAVACA    NOT AVBL
CORPUS CHRISTI PTCLDY    79  76  90 SE7       29.95S
KINGSVILLE NAS CLEAR     80  79  96 SE7       29.94S
COTULLA        LGT RAIN  78  74  87 SE9       29.94S
LAREDO         CLEAR     79  71  76 SE13      29.92F
BROWNSVILLE    CLEAR     79  74  84 S10       29.95F
PORT ISABEL    PTCLDY    80  76  87 S15G23    29.94F
HEBBRONVILLE     N/A     75  73  93 SE8       29.95S
MCALLEN        MOCLDY    79  75  87 SE7       29.94F
WESLACO        PTCLDY    78  75  90 SE8       29.94S
FALFURRIAS     PTSUNNY   78  76  93 SE9       29.93S
EDINBURG       MOSUNNY   78  75  89 CALM      29.94F
$$


USA.gov is the U.S. government's official web portal to all federal, state and local government web resources and services.